CAPE
0 0 0 0 0 0 0 0 0 0 0 0 0 0 0 0 0 0 0 0 0 0 0 0 0 0 0 0 0 0 0 0 0 0 0 0 0 0 0 0 0 0 0 0 0
0 0 0 0 0 0 0 0 0 0 0 0 0 0 0 0 0 0 0 0 0 0 0 0 0 0 0 0 0 0 0 0 0 0 0 0 0 0 0 0 0 0 0 0 0
0 0 0 0 0 0 0 0 0 0 0 0 0 0 0 0 0 0 0 0 0 0 0 0 0 0 0 0 0 0 0 0 0 0 0 0 0 0 0 0 0 0 0 0 0
1 0 0 0 0 0 0 0 0 0 0 0 0 0 0 0 0 0 0 0 0 0 0 0 0 0 0 0 0 0 0 0 0 0 0 0 0 0 0 0 0 0 0 0 0
0 0 0 0 0 0 0 0 0 0 0 0 0 0 0 0 0 0 0 0 0 0 0 0 0 0 0 0 0 0 0 0 0 0 0 0 0 0 0 0 0 0 0 0 0
0 0 0 0 0 0 0 0 0 0 0 0 0 0 0 0 0 0 0 0 0 0 0 0 0 0 0 0 0 0 0 0 0 0 0 0 0 0 0 0 0 0 0 0 0
0 0 0 0 0 0 0 0 0 0 0 0 0 0 0 0 0 0 0 0 0 0 0 0 0 0 0 0 0 0 0 0 0 0 0 0 0 0 0 0 0 0 0 0 0
0 0 0 0 0 0 0 0 0 0 0 0 0 0 0 0 0 0 0 0 0 0 0 0 0 0 0 0 0 0 0 0 0 0 0 0 0 0 0 0 0 0 0 0 0
0 0 0 0 0 0 0 0 0 0 0 0 0 0 0 0 0 0 0 0 0 0 0 0 0 0 0 0 0 0 0 0 0 0 0 0 0 0 0 0 0 0 0 0 0
0 0 0 0 0 0 0 0 0 0 0 0 0 0 0 0 0 0 0 0 0 0 0 0 0 0 0 0 0 0 0 0 0 0 0 0 0 0 0 0 0 0 0 0 0
0 0 0 0 0 0 0 0 0 0 0 0 0 0 0 0 0 0 0 0 0 0 0 0 0 0 0 0 0 0 0 0 0 0 0 0 0 0 0 0 0 0 0 0 0
0 0 0 0 0 0 0 0 0 0 0 0 0 0 0 0 0 0 0 0 0 0 0 0 0 0 0 0 0 0 0 0 0 0 0 0 0 0 0 0 0 0 0 0 0
0 0 0 0 0 0 0 0 0 0 0 0 0 0 0 0 0 0 0 0 0 0 0 0 0 0 0 0 0 0 0 0 0 0 0 0 0 0 0 0 0 0 0 0 0
0 0 0 0 0 0 0 0 0 0 0 0 0 0 0 0 0 0 0 0 0 0 0 0 0 0 0 0 0 0 0 0 0 0 0 0 0 0 0 0 0 0 0 0 0
0 0 0 0 0 0 0 0 0 0 0 0 0 0 0 0 0 0 0 0 0 0 0 0 0 0 0 0 0 0 0 0 0 0 0 0 0 0 0 0 0 0 0 0 0
0 0 0 0 0 0 0 0 0 0 0 0 0 0 0 0 0 0 0 0 0 0 0 0 0 0 0 0 0 0 0 0 0 0 0 0 0 0 0 0 0 0 0 0 0
0 0 1 0 0 0 0 0 1 0 0 0 0 0 0 0 0 0 0 0 0 0 0 0 0 0 0 0 0 0 0 0 0 0 0 0 0 0 0 0 0 0 0 0 0
0 0 1 0 0 0 0 0 7 0 0 0 0 0 0 0 0 0 0 0 0 0 0 0 0 0 0 0 0 0 0 0 0 0 0 0 0 0 0 0 0 0 0 0 0
0 0 1 0 0 0 0 1 0 1 0 0 0 0 0 0 0 0 0 0 0 0 0 0 0 0 0 0 0 0 0 0 0 0 0 0 0 0 0 0 0 0 0 0 0
0 0 2 0 0 0 0 2 5 1 0 0 0 0 0 0 0 0 0 0 0 0 0 0 0 0 0 0 0 0 0 0 0 0 0 0 0 0 0 0 0 0 0 0 0
0 0 0 0 0 1 3 1 0 0 3 1 5 1 0 1 1 1 0 0 0 0 0 0 0 0 0 0 0 0 0 0 0 0 0 0 0 0 0 0 0 0 0 0 0
5 2 1 1 4 4 13 7 3 1 1 4 0 1 4 1 10 35 7 13 0 0 0 0 0 0 0 0 0 0 0 0 0 0 0 0 0 0 0 0 0 0 0 0 0
4 13 15 27 4 15 9 3 12 1 4 18 26 10 2 2 23 2 0 0 1 7 3 0 7 19 1 0 0 0 0 0 0 0 0 0 0 0 0 0 0 0 0 0 0
0 0 8 33 16 6 6 3 8 1 8 31 29 24 16 6 3 10 2 4 9 16 24 26 32 10 4 0 0 0 0 0 0 0 0 0 0 0 0 0 0 0 0 0 0
0 0 0 0 10 6 22 19 6 2 16 22 26 29 8 8 4 1 1 0 0 0 1 0 4 0 0 0 0 0 0 0 0 0 0 0 0 0 0 0 0 0 0 0 0
0 0 0 1 0 0 9 0 10 11 19 17 19 0 2 1 2 0 0 2 0 0 0 0 0 2 0 0 0 0 0 0 0 0 0 0 0 0 0 0 0 0 0 0 0
0 9 2 0 0 0 0 0 0 0 0 0 0 0 0 0 0 0 0 0 0 0 0 2 1 0 0 1 1 1 2 0 0 0 0 0 0 0 0 0 0 0 0 0 0
CIN
-0 -0 -0 -0 -0 -0 -0 -0 -0 -0 -0 -0 -0 -0 -0 -0 -0 -0 -0 -0 -0 -0 -0 -0 -0 -0 -0 -0 -0 -0 -0 -0 -0 -0 -0 -0 -0 -0 -0 -0 -0 -0 -0 -0 -0
-0 -0 -0 -0 -0 -0 -0 -0 -0 -0 -0 -0 -0 -0 -0 -0 -0 -0 -0 -0 -0 -0 -0 -0 -0 -0 -0 -0 -0 -0 -0 -0 -0 -0 -0 -0 -0 -0 -0 -0 -0 -0 -0 -0 -0
-0 -0 -0 -0 -0 -0 -0 -0 -0 -0 -0 -0 -0 -0 -0 -0 -0 -0 -0 -0 -0 -0 -0 -0 -0 -0 -0 -0 -0 -0 -0 -0 -0 -0 -0 -0 -0 -0 -0 -0 -0 -0 -0 -0 -0
-0 -0 -0 -0 -0 -0 -0 -0 -0 -0 -0 -0 -0 -0 -0 -0 -0 -0 -0 -0 -0 -0 -0 -0 -0 -0 -0 -0 -0 -0 -0 -0 -0 -0 -0 -0 -0 -0 -0 -0 -0 -0 -0 -0 -0
-0 -0 -0 -0 -0 -0 -0 -0 -0 -0 -0 -0 -0 -0 -0 -0 -0 -0 -0 -0 -0 -0 -0 -0 -0 -0 -0 -0 -0 -0 -0 -0 -0 -0 -0 -0 -0 -0 -0 -0 -0 -0 -0 -0 -0
-0 -0 -0 -0 -0 -0 -0 -0 -0 -0 -0 -0 -0 -0 -0 -0 -0 -0 -0 -0 -0 -0 -0 -0 -0 -0 -0 -0 -0 -0 -0 -0 -0 -0 -0 -0 -0 -0 -0 -0 -0 -0 -0 -0 -0
-0 -0 -0 -0 -0 -0 -0 -0 -0 -0 -0 -0 -0 -0 -0 -0 -0 -0 -0 -0 -0 -0 -0 -0 -0 -0 -0 -0 -0 -0 -0 -0 -0 -0 -0 -0 -0 -0 -0 -0 -0 -0 -0 -0 -0
-0 -0 -0 -0 -0 -0 -0 -0 -0 -0 -0 -0 -0 -0 -0 -0 -0 -0 -0 -0 -0 -0 -0 -0 -0 -0 -0 -0 -0 -0 -0 -0 -0 -0 -0 -0 -0 -0 -0 -0 -0 -0 -0 -0 -0
-0 -0 -0 -0 -0 -0 -0 -0 -0 -0 -0 -0 -0 -0 -0 -0 -0 -0 -0 -0 -0 -0 -0 -0 -0 -0 -0 -0 -0 -0 -0 -0 -0 -0 -0 -0 -0 -0 -0 -0 -0 -0 -0 -0 -0
-0 -0 -0 -0 -0 -0 -0 -0 -0 -0 -0 -0 -0 -0 -0 -0 -0 -0 -0 -0 -0 -0 -0 -0 -0 -0 -0 -0 -0 -0 -0 -0 -0 -0 -0 -0 -0 -0 -0 -0 -0 -0 -0 -0 -0
-0 -0 -0 -0 -0 -0 -0 -0 -0 -0 -0 -0 -0 -0 -0 -0 -0 -0 -0 -0 -0 -0 -0 -0 -0 -0 -0 -0 -0 -0 -0 -0 -0 -0 -0 -0 -0 -0 -0 -0 -0 -0 -0 -0 -0
-0 -0 -0 -0 -0 -0 -0 -0 -0 -0 -0 -0 -0 -0 -0 -0 -0 -0 -0 -0 -0 -0 -0 -0 -0 -0 -0 -0 -0 -0 -0 -0 -0 -0 -0 -0 -0 -0 -0 -0 -0 -0 -0 -0 -0
-0 -0 -0 -0 -0 -0 -0 -0 -0 -0 -0 -0 -0 -0 -0 -0 -0 -0 -0 -0 -0 -0 -0 -0 -0 -0 -0 -0 -0 -0 -0 -0 -0 -0 -0 -0 -0 -0 -0 -0 -0 -0 -0 -0 -0
-0 -0 -0 -0 -0 -0 -0 -0 -0 -0 -0 -0 -0 -0 -0 -0 -0 -0 -0 -0 -0 -0 -0 -0 -0 -0 -0 -0 -0 -0 -0 -0 -0 -0 -0 -0 -0 -0 -0 -0 -0 -0 -0 -0 -0
-0 -0 -0 -0 -0 -0 -0 -0 -0 -0 -0 -0 -0 -0 -0 -0 -0 -0 -0 -0 -0 -0 -0 -0 -0 -0 -0 -0 -0 -0 -0 -0 -0 -0 -0 -0 -0 -0 -0 -0 -0 -0 -0 -0 -0
-0 -0 -0 -0 -0 -0 -0 -0 -0 -0 -0 -0 -0 -0 -0 -0 -0 -0 -0 -0 -0 -0 -0 -0 -0 -0 -0 -0 -0 -0 -0 -0 -0 -0 -0 -0 -0 -0 -0 -0 -0 -0 -0 -0 -0
-0 -0 -0 -0 -0 -0 -0 -0 -3 -0 -0 -0 -0 -0 -0 -0 -0 -0 -0 -0 -0 -0 -0 -0 -0 -0 -0 -0 -0 -0 -0 -0 -0 -0 -0 -0 -0 -0 -0 -0 -0 -0 -0 -0 -0
-0 -0 -0 -0 -0 -0 -0 -0 -4 -0 -0 -0 -0 -0 -0 -0 -0 -0 -0 -0 -0 -0 -0 -0 -0 -0 -0 -0 -0 -0 -0 -0 -0 -0 -0 -0 -0 -0 -0 -0 -0 -0 -0 -0 -0
-0 -0 -0 -0 -0 -0 -0 -2 -0 -0 -0 -0 -0 -0 -0 -0 -0 -0 -0 -0 -0 -0 -0 -0 -0 -0 -0 -0 -0 -0 -0 -0 -0 -0 -0 -0 -0 -0 -0 -0 -0 -0 -0 -0 -0
-0 -0 -1 -0 -0 -0 -0 -0 -0 -4 -8 -0 -0 -0 -0 -0 -0 -0 -0 -0 -0 -0 -0 -0 -0 -0 -0 -0 -0 -0 -0 -0 -0 -0 -0 -0 -0 -0 -0 -0 -0 -0 -0 -0 -0
-0 -0 -0 -0 -0 -6 -0 -0 -1 -0 -3 -6 -2 -2 -0 -8 -16 -10 -0 -0 -0 -0 -0 -0 -0 -0 -0 -0 -0 -0 -0 -0 -0 -0 -0 -0 -0 -0 -0 -0 -0 -0 -0 -0 -0
-0 -0 -0 -0 -1 -7 -0 -1 -1 -1 -9 -4 -0 -15 -0 -1 -2 -1 -9 -1 -0 -0 -0 -0 -0 -0 -0 -0 -0 -0 -0 -0 -0 -0 -0 -0 -0 -0 -0 -0 -0 -0 -0 -0 -0
-3 -2 -10 -11 -0 -0 -0 -2 -0 -0 -0 -1 -1 -5 -2 -1 -0 -1 -1 -0 -1 -8 -12 -1 -16 -10 -6 -0 -0 -0 -0 -0 -0 -0 -0 -0 -0 -0 -0 -0 -0 -0 -0 -0 -0
-0 -0 -2 -2 -0 -2 -1 -1 -0 -1 -2 -2 -1 -2 -1 -7 -0 -0 -0 -1 -4 -2 -7 -9 -1 -6 -1 -0 -0 -0 -0 -0 -0 -0 -0 -0 -0 -0 -0 -0 -0 -0 -0 -0 -0
-0 -0 -0 -0 -1 -7 -2 -0 -1 -0 -4 -5 -0 -1 -7 -23 -0 -0 -0 -0 -0 -0 -5 -0 -26 -0 -0 -0 -0 -0 -0 -0 -0 -0 -0 -0 -0 -0 -0 -0 -0 -0 -0 -0 -0
-0 -0 -0 -0 -0 -14 -6 -0 -2 -0 -0 -0 -0 -0 -0 -0 -0 -0 -0 -0 -0 -0 -0 -0 -0 -0 -0 -0 -0 -0 -0 -0 -0 -0 -0 -0 -0 -0 -0 -0 -0 -0 -0 -0 -0
-0 -1 -0 -0 -0 -0 -0 -0 -3 -0 -0 -0 -0 -0 -0 -0 -0 -0 -0 -0 -0 -0 -0 -0 -0 -0 -0 -0 -5 -0 -4 -0 -0 -0 -0 -0 -0 -0 -0 -0 -0 -0 -0 -0 -0
Wind_Speed
22 23 23 24 24 24 24 24 24 24 24 25 25 25 24 22 19 15 8 8 10 8 11 12 12 12 13 13 12 14 14 13 14 15 17 13 11 12 13 11 8 5 7 11 9
23 24 25 25 25 26 26 26 26 26 26 26 27 27 25 23 18 13 9 9 7 6 9 10 11 12 14 14 13 11 14 14 13 16 17 15 12 14 13 11 8 6 8 11 5
24 25 26 27 27 27 28 28 28 28 28 28 28 28 26 22 24 18 14 5 4 4 10 10 13 12 17 14 13 13 16 15 17 18 19 20 18 15 14 12 7 5 4 5 1
26 27 27 28 29 29 29 30 30 30 29 29 29 29 26 19 24 16 13 9 6 6 9 13 14 16 19 18 15 20 16 17 21 21 22 22 21 21 13 12 15 10 9 4 5
26 27 28 30 30 31 31 32 32 31 31 30 30 28 21 21 20 16 12 10 9 9 10 12 14 18 21 20 21 20 21 21 20 21 23 24 20 22 17 18 16 16 14 9 8
28 28 30 31 31 32 33 34 34 33 32 31 29 24 21 26 19 12 10 10 10 9 13 12 17 17 24 23 22 25 26 27 25 22 26 27 27 22 16 22 15 15 15 14 12
29 30 31 32 33 34 35 36 36 36 34 32 27 21 22 17 20 13 11 15 13 13 16 16 17 19 22 26 25 27 32 33 20 25 24 24 23 15 14 22 21 18 16 15 15
29 30 31 33 34 36 37 38 38 37 35 28 21 21 26 23 19 17 16 20 18 15 17 19 17 21 24 25 28 28 29 34 30 21 21 18 26 16 21 22 19 18 20 19 17
29 31 32 34 36 37 39 40 39 33 26 21 20 21 29 21 21 18 14 19 17 17 18 18 17 20 23 24 32 28 24 24 23 23 26 21 26 23 26 21 20 19 21 23 19
28 30 31 33 36 38 39 38 27 24 21 20 22 25 24 24 20 18 14 15 18 16 19 18 20 20 19 22 24 24 28 26 24 30 27 25 27 28 31 28 24 21 20 29 23
28 29 31 33 35 36 34 25 27 27 24 25 25 25 25 22 20 19 16 15 18 20 22 21 21 19 19 20 23 32 29 29 27 31 35 33 31 28 27 29 27 25 27 26 24
28 28 30 32 33 34 26 25 25 25 37 30 30 29 28 24 29 22 16 20 22 26 23 26 26 22 26 26 26 26 27 29 30 29 33 32 36 30 28 29 29 29 29 30 24
29 29 29 31 33 25 24 24 22 22 35 37 30 31 29 24 30 28 17 24 27 28 25 29 29 24 23 25 28 27 30 30 32 38 37 46 52 34 29 28 28 29 26 24 22
31 30 28 30 26 26 24 23 22 22 40 36 29 25 22 18 26 22 15 21 23 29 27 31 27 23 24 26 25 33 29 33 33 38 46 33 65 32 30 27 25 25 24 21 22
33 31 27 23 27 27 24 22 20 23 43 26 22 19 18 18 20 22 18 23 27 27 25 31 30 28 27 26 26 32 31 33 37 39 46 38 41 45 25 25 19 15 19 17 21
28 27 23 24 25 24 23 21 22 33 43 28 22 23 25 26 27 24 22 22 25 31 30 33 29 30 31 31 28 32 34 36 36 36 43 34 36 58 31 24 24 25 29 33 38
28 27 18 19 26 21 21 22 34 37 27 30 28 25 26 27 28 28 30 30 33 39 42 40 38 34 29 36 32 32 36 44 44 41 49 34 38 40 35 35 37 33 34 38 39
30 30 26 24 18 23 24 27 43 35 36 28 28 31 36 32 37 35 37 42 34 35 45 46 57 32 27 28 36 34 32 41 53 59 61 44 53 53 39 37 38 38 38 41 44
33 33 33 26 18 21 29 39 39 35 33 36 39 45 43 37 37 35 42 47 41 31 40 45 53 36 34 31 29 39 42 37 46 47 56 56 60 63 47 43 37 39 52 50 44
34 37 40 23 13 22 38 50 45 38 42 43 45 39 45 41 42 41 43 39 38 30 30 42 54 47 41 35 36 36 32 45 40 54 62 59 60 60 56 55 55 53 40 38 40
33 40 34 15 16 36 52 50 46 40 37 43 50 51 53 53 50 52 48 44 41 39 34 36 44 56 43 46 49 43 45 42 43 46 60 65 63 65 58 50 43 44 40 39 40
31 40 23 13 34 38 52 46 41 48 38 42 42 50 59 60 62 60 58 51 36 39 47 37 42 57 64 50 43 43 48 46 54 57 52 59 61 45 46 49 48 51 54 52 50
31 34 22 23 44 44 42 43 42 47 47 42 45 43 47 59 64 63 62 53 46 46 45 40 46 60 51 53 46 50 53 50 52 55 64 69 66 46 47 43 47 42 45 52 52
30 38 30 32 37 42 47 50 51 42 46 43 47 44 50 56 53 63 67 54 46 48 46 46 54 57 69 62 56 57 53 54 55 64 68 67 66 58 63 60 61 57 57 48 45
28 35 31 38 42 42 42 43 50 53 43 42 45 45 48 53 52 51 47 46 45 48 47 45 58 57 60 62 61 63 67 63 65 66 72 69 67 60 59 69 75 61 61 51 50
33 34 33 38 37 39 39 45 50 47 43 46 46 42 41 46 46 53 47 45 47 44 46 43 51 57 65 60 61 67 63 64 69 69 72 72 72 60 59 61 70 68 60 58 53
26 28 31 37 37 41 44 43 43 38 39 39 40 46 50 47 44 48 49 52 51 57 62 55 59 63 77 63 63 69 62 64 64 63 60 67 63 59 62 57 58 59 51 45 44
Wind_Direction
320 319 320 321 321 322 322 322 323 325 325 326 324 322 325 332 341 348 8 23 26 59 30 29 23 22 17 11 19 15 7 8 11 12 8 21 19 19 15 12 33 48 23 16 56
320 319 319 320 320 320 320 320 320 321 321 321 321 324 328 333 341 339 349 355 10 55 16 10 1 3 353 354 357 355 345 351 358 352 350 354 355 353 355 354 352 349 351 355 70
321 320 319 318 317 318 318 318 320 321 322 321 321 321 324 336 329 337 353 7 11 39 349 350 345 344 332 338 335 338 325 331 331 334 337 333 334 339 336 325 325 312 304 331 330
317 318 318 317 316 314 315 315 315 317 318 319 319 318 322 337 317 346 359 9 8 346 335 328 327 323 321 319 322 316 315 315 321 324 327 324 327 323 315 298 322 315 323 295 254
314 314 314 313 311 311 311 310 310 312 313 316 318 321 329 320 315 331 341 344 339 329 310 311 310 312 310 316 316 306 310 313 312 315 318 320 314 315 306 308 307 309 309 283 258
309 311 311 310 309 307 306 305 304 306 309 313 316 324 322 309 327 340 345 341 332 323 313 307 310 308 310 309 307 315 313 312 312 310 312 310 312 316 278 319 312 301 285 281 257
307 309 309 309 308 306 304 302 301 301 302 305 313 319 312 303 320 325 325 320 318 315 308 307 307 309 316 311 314 312 310 310 296 307 304 312 304 286 268 316 315 313 304 287 260
306 307 307 307 307 305 302 299 296 296 300 308 315 314 306 314 317 311 310 312 315 312 313 313 309 305 304 312 313 313 313 309 316 320 318 310 260 277 312 310 303 302 302 297 274
304 305 306 306 306 304 301 297 296 302 309 314 312 309 306 317 311 311 313 312 315 317 317 319 312 304 307 306 306 309 297 297 290 307 309 296 295 292 311 307 300 301 303 300 281
306 307 307 308 307 306 304 302 310 313 314 314 310 307 305 308 313 316 314 314 314 315 314 311 308 302 305 301 290 296 305 303 297 314 307 296 285 297 303 304 299 294 291 301 287
306 308 309 310 311 311 314 316 309 307 304 297 303 301 309 311 313 310 313 308 311 308 302 304 296 284 281 281 285 304 301 299 300 308 306 297 285 278 279 294 271 277 264 263 272
305 308 309 310 313 312 321 316 314 311 299 298 293 290 295 305 300 299 305 297 296 293 297 298 281 285 299 299 294 288 286 278 289 297 301 293 272 282 285 274 272 289 266 260 266
302 304 308 310 312 320 320 321 322 321 303 299 298 296 295 291 288 293 286 295 293 291 286 280 292 297 289 291 293 287 292 290 294 310 304 307 268 281 289 268 262 258 272 274 272
296 300 305 309 311 315 315 324 324 325 299 302 302 306 308 305 302 310 297 295 297 296 295 294 298 288 291 291 291 294 299 300 302 309 306 314 276 306 308 294 294 292 292 285 285
293 294 298 305 305 307 314 321 325 323 295 308 308 322 318 306 313 315 313 302 292 296 300 297 303 301 295 292 298 297 306 304 305 304 305 303 304 311 308 299 289 293 303 297 299
303 300 297 298 298 303 311 316 315 295 285 300 306 306 300 299 300 307 311 310 308 298 293 291 297 297 297 303 299 304 306 305 303 302 290 296 301 300 312 312 318 313 308 306 303
301 293 302 306 298 303 305 305 290 280 298 298 296 301 300 298 296 297 295 294 295 298 296 298 294 294 293 296 299 298 299 300 298 296 292 302 293 276 305 310 308 310 308 307 304
297 287 292 295 297 301 301 290 275 282 281 296 299 298 294 296 294 293 293 290 293 296 297 297 294 297 300 291 297 293 286 286 291 291 292 295 287 293 300 303 305 304 307 307 304
297 286 286 293 294 296 287 276 278 286 291 288 290 288 290 291 290 292 290 288 291 288 290 295 291 300 298 300 296 296 288 286 288 289 290 288 288 292 298 301 308 311 311 305 303
295 287 279 292 283 289 276 273 277 280 285 287 286 288 288 289 290 291 290 294 295 296 293 296 291 294 294 298 294 288 295 290 288 287 284 285 287 289 295 299 304 309 317 321 319
290 285 288 284 280 273 270 274 278 281 287 285 283 282 282 286 287 285 286 290 292 296 299 299 295 288 295 290 289 289 285 286 288 283 284 286 285 288 295 301 305 307 307 310 312
290 282 293 274 274 278 271 275 283 281 286 284 287 283 281 285 284 282 282 283 298 296 291 294 293 287 284 287 291 289 285 283 280 284 283 284 283 287 290 294 295 295 294 296 299
288 287 289 280 275 275 279 281 280 282 282 285 285 285 288 284 285 282 283 287 288 286 290 293 291 290 292 290 284 280 280 282 282 282 279 281 283 284 293 294 295 296 297 297 300
293 287 284 277 278 280 279 280 280 285 284 283 285 286 287 285 285 287 287 291 289 285 285 288 283 280 281 284 290 288 285 279 278 281 282 279 284 286 286 288 289 289 292 301 303
293 287 290 284 278 279 281 285 283 282 286 288 287 285 287 287 291 291 293 296 298 296 291 285 278 279 281 284 283 283 283 281 279 279 279 283 281 282 282 286 285 292 294 298 297
289 289 291 286 287 285 285 280 281 286 285 285 285 291 292 288 291 291 295 296 293 296 298 299 291 291 289 290 285 283 282 281 281 281 281 282 282 283 284 287 286 287 292 294 295
298 297 293 288 288 284 284 285 286 291 290 289 293 292 289 292 296 294 294 291 289 290 288 288 288 290 287 290 293 288 289 283 282 286 286 284 287 291 288 285 285 289 297 298 300